Regional Weather Roundup
Issued by NWS

Home | Current Version | Previous Version | Text Only | Print | Product List | Glossary Off
Versions: 1 2 3 4 5 6 7 8 9 10 11 12 13 14 15 16 17 18 19 20 21 22 23 24 25 26 27

000
ASUS45 KPSR 241010
RWRAZ

ARIZONA HOURLY REGIONAL WEATHER ROUNDUP
NATIONAL WEATHER SERVICE PHOENIX AZ
300 AM MST THU MAY 24 2018

NOTE: FAIR INDICATES FEW OR NO CLOUDS BELOW 12,000 FEET WITH NO
SIGNIFICANT WEATHER AND/OR OBSTRUCTIONS TO VISIBILITY.

AZZ001>003-036-241100-
NORTHWEST ARIZONA

CITY           SKY/WX    TMP DP  RH WIND       PRES   REMARKS
BULLHEAD CITY  CLEAR     73  28  19 CALM      29.87R
KINGMAN        CLEAR     62  27  26 S6        30.02S
$$

AZZ004>008-015-016-018-241100-
NORTH CENTRAL ARIZONA

CITY           SKY/WX    TMP DP  RH WIND       PRES   REMARKS
GRAND CANYON   CLEAR     34  15  46 CALM      30.22S
WILLIAMS       CLEAR     41  21  45 S8        30.20S
PRESCOTT       CLEAR     49  28  44 S6        30.13S
FLAGSTAFF      CLEAR     37  19  48 CALM      30.23S
PAYSON         CLEAR     54  19  26 CALM      30.14S
$$

AZZ009>014-017-241100-
NORTHEAST ARIZONA

CITY           SKY/WX    TMP DP  RH WIND       PRES   REMARKS
WINSLOW        CLEAR     48  15  26 CALM      30.13S
SAINT JOHNS    CLEAR     54  20  26 CALM      30.18R
WINDOW ROCK    CLEAR     50  18  28 S6        30.23R
SHOW LOW       CLEAR     46  18  31 CALM      30.22S
$$

AZZ540-542>544-546-548-241100-
GREATER PHOENIX AREA

CITY           SKY/WX    TMP DP  RH WIND       PRES   REMARKS
PHOENIX        CLEAR     75  31  19 E5        29.90F
BUCKEYE        CLEAR     66  25  20 N5        29.92S
DEER VALLEY    CLEAR     69  28  21 CALM      29.93S
SCOTTSDALE     CLEAR     73  36  25 CALM      29.94F
MESA-GATEWAY   CLEAR     67  31  25 E7        29.95S
$$

AZZ539-553-241100-
SOUTHWEST MARICOPA COUNTY AND PINAL COUNTY

CITY           SKY/WX    TMP DP  RH WIND       PRES   REMARKS
CASA GRANDE    CLEAR     66  28  24 NE6       29.95S
GILA BEND      FAIR      73  27  18 S6        29.90R
$$

AZZ503-504-507>509-241100-
SOUTHEAST ARIZONA

CITY           SKY/WX    TMP DP  RH WIND       PRES   REMARKS
TUCSON         CLEAR     66  31  27 SE5       30.03S
DAVIS-MONTHAN  CLEAR     64  29  27 SE8       30.01S
NOGALES        CLEAR     60  31  33 NE5       30.08S
SIERRA VISTA   CLEAR     61  29  29 S7        30.13S
DOUGLAS        CLEAR     57  27  31 E7        30.10S
SAFFORD        CLEAR     70  21  15 N8        30.01R
$$

AZZ532-241100-
SOUTHWEST ARIZONA

CITY           SKY/WX    TMP DP  RH WIND       PRES   REMARKS
YUMA           CLEAR     70  54  56 SE14      29.86S
$$

CAZ041-043-047-048-061-525>527-560>570-241100-
SOUTHERN CALIFORNIA

CITY           SKY/WX    TMP DP  RH WIND       PRES   REMARKS
DOWNTOWN L.A.  CLOUDY    60  54  80 CALM      30.02S
L.A. AIRPORT   CLOUDY    60  54  80 CALM      30.02F
SAN DIEGO      CLOUDY    61  54  77 CALM      30.04F
BURBANK        CLOUDY    57  54  89 S3        30.02S
ONTARIO        CLOUDY    59  51  75 NW3       30.02F
RIVERSIDE        N/A     59  53  80 W3        30.02F
PALM SPRINGS   CLEAR     69  53  56 S3        29.89S
EL CENTRO NAS  CLEAR     70  49  47 SE9       29.86R
IMPERIAL       CLEAR     70  58  65 SE8       29.84S
BLYTHE         CLEAR     74  36  25 S8        29.86S
NEEDLES        CLEAR     79  36  21 SW7       29.87S
$$

NVZ020-UTZ003-241100-
SOUTHERN NEVADA-UTAH

CITY           SKY/WX    TMP DP  RH WIND       PRES   REMARKS
LAS VEGAS      CLEAR     74  34  23 S3        29.91R
SALT LAKE CITY PTCLDY    57  45  62 SE8       30.03S
$$

NMZ009-TXZ055-241100-
NEW MEXICO-WEST TEXAS

CITY           SKY/WX    TMP DP  RH WIND       PRES   REMARKS
ALBUQUERQUE    PTCLDY    64  21  19 S6        30.15R
EL PASO        CLEAR     72  47  40 N3        30.08R
$$


........................KEY........................
SKY/WX - SKY CONDITION/WEATHER
TMP    - TEMPERATURE IN FAHRENHEIT
DP     - DEW POINT IN FAHRENHEIT
RH     - RELATIVE HUMIDITY IN PERCENT
WIND   - DIRECTION AND SPEED IN MILES PER HOUR (MPH)
VRB    - VARIABLE WIND DIRECTION
PRES   - MEAN SEA LEVEL PRESSURE IN INCHES OF MERCURY
         F - FALLING PRESSURE   R - RISING PRESSURE
         S - STEADY PRESSURE
VSB    - VISIBILITY IN MILES
HX     - HEAT INDEX IN FAHRENHEIT
WCI    - WIND CHILL INDEX IN FAHRENHEIT
TC     - TEMPERATURE IN CELSIUS WHICH IS ALSO KNOWN AS
         TEMPERATURE IN CENTIGRADE
AFB    - AIR FORCE BASE
         LUKE AFB IS LUKE AIR FORCE BASE
         DAVIS-MONTHAN IS DAVIS-MONTHAN AIR FORCE BASE
NAS    - NAVAL AIR STATION
         EL CENTRO NAS IS EL CENTRO NAVAL AIR STATION
N/A    - NOT AVAILABLE





USA.gov is the U.S. government's official web portal to all federal, state and local government web resources and services.